Location: Newark
(49.3667°N, 21.6167°E)
Time: 11:38:19
(UTC+00:00)

Envisat - Pass Details

Date: 13 December 2019
Orbit: 764 x 766 km, 98.1° (Epoch: 18 January)

Event Time Altitude Azimuth Distance (km) Brightness Sun altitude
Rises 04:26:52 0° 23° (NNE) 3,245 6.4 -17.4°
Reaches altitude 10° 04:29:35 10° 37° (NE) 2,313 5.7 -17.0°
Maximum altitude 04:33:46 25° 92° (E) 1,506 5.4 -16.4°
Drops below altitude 10° 04:37:55 10° 148° (SSE) 2,298 6.2 -15.7°
Sets 04:40:36 0° 161° (SSE) 3,218 6.8 -15.3°
